Duchifat 3
1 44854U 19089C   25116.80109161  .00073793  00000-0  16394-2 0  9997
2 44854  36.9449 272.7726 0001513 282.8543  77.2043 15.42570516296171
TO-108
1 44881U 19093C   25116.84572757  .00001962  00000-0  23314-3 0  9991
2 44881  97.7935 193.4097 0014189  21.2704 338.9099 14.85496274289582
FloripaSat 1
1 44885U 19093G   25116.80240142  .00010644  00000-0  90642-3 0  9996
2 44885  97.8173 204.3327 0010191   2.1321 357.9943 14.97929583290196
RS-44
1 44909U 19096E   25116.85172838 -.00000001  00000-0 -53641-4 0  9994
2 44909  82.5194 256.3298 0217975  38.0763 323.5516 12.79740280249145
UPMSat 2
1 46276U 20061E   25116.14265654  .00077384  00000-0  85719-3 0  9994
2 46276  97.2481 189.2194 0001480 140.4739 219.6628 15.62734544258519
SALSAT
1 46495U 20068K   25116.44777698  .00012241  00000-0  53808-3 0  9998
2 46495  97.8577  92.4681 0010197 324.6728  35.3830 15.22011765251812
CubeSX-Sirius-HSE
1 47951U 21022V   25116.87937017  .00278472  00000-0  17777-2 0  9991
2 47951  97.4202  27.6380 0010573 104.5354 255.7084 15.75513728226922
CubeSX-HSE
1 47952U 21022W   25116.77085027  .00259993  00000-0  16310-2 0  9995
2 47952  97.4207  27.7671 0010224 102.1636 258.0775 15.75970086226929
GRBAlpha
1 47959U 21022AD  25116.87472564  .00257763  00000-0  16653-2 0  9992
2 47959  97.4204  27.9895 0010129 103.8627 256.3766 15.75299342225766
TUBIN
1 48900U 21059X   25116.80912846  .00071708  00000-0  10113-2 0  9992
2 48900  97.6725 282.6207 0002741  49.9154 310.2339 15.56361766213229
LEDSAT
1 49069U 21073D   25116.75578914  .00079825  00000-0  11883-2 0  9996
2 49069  97.3920 196.6520 0011560 229.5166 130.5081 15.54784317204619
CUTE
1 49263U 21088D   25116.15381252  .00025068  00000-0  52775-3 0  9995
2 49263  97.4498 191.1731 0009178  53.6227 306.5867 15.45227725197563
TeikyoSat 4
1 49396U 21102B   25115.68149145  .00002989  00000-0  20118-3 0  9992
2 49396  97.4144 155.7253 0010884 289.9590  70.0466 15.07414720189780
Z-Sat
1 49399U 21102E   25116.87175623  .00008007  00000-0  44322-3 0  9997
2 49399  97.3843 159.7050 0016662 253.5546 106.3855 15.13979701190368
KOSEN 1
1 49402U 21102H   25116.69451113  .00010082  00000-0  47514-3 0  9995
2 49402  97.3751 162.6250 0014971 227.5855 132.4115 15.19594009190629
HO-113
1 50466U 21131B   25116.87057929  .00001094  00000-0  35602-3 0  9994
2 50466  98.5084 206.4437 0002969 262.4953  97.5898 14.40750668175156
IRIS-A
1 51044U 22002BN  25116.72118691  .00260385  00000-0  13254-2 0  9991
2 51044  97.3266 194.8704 0003837 248.8646 111.2212 15.80720398182926
Foresail-1
1 52766U 22057AL  25116.12899961  .00203711  00000-0  12566-2 0  9998
2 52766  97.6031 263.2225 0000615 173.1817 186.9456 15.76568060162851
SNUGLITE 2
1 52899U 22065F   25116.38103205  .00002577  00000-0  51089-3 0  9992
2 52899  98.1615 258.8043 0006484 246.8848 113.1671 14.63079644150029
IO-117
1 53106U 22080B   25051.21822557 -.00000003  00000-0  00000+0 0  9995
2 53106  70.1434 106.3440 0008542  48.0089 312.1297  6.42557744 61200
UmKA 1 (RS40S)
1 57172U 23091G   25116.88563119  .00010969  00000-0  59253-3 0  9995
2 57172  97.5625 172.5027 0016213 123.2743 237.0044 15.14773274100863
CubeBel-2 (EU11S)
1 57175U 23091K   25116.89211612  .00017606  00000-0  85734-3 0  9995
2 57175  97.5624 173.4032 0014036 131.7654 228.4782 15.18339895100928
VERONIKA
1 58261U 23174F   25116.84554750  .00140950  00000-0  17533-2 0  9992
2 58261  97.4157 200.7647 0007768 203.4542 156.6361 15.59451130 81844
ENSO
1 58470U 23185J   25116.83638620  .00071824  00000-0  12303-2 0  9997
2 58470  97.3767 190.7040 0007998 226.7600 133.2985 15.50947554 78249
EIRSAT-1
1 58472U 23185L   25116.85869805  .00117580  00000-0  15039-2 0  9991
2 58472  97.3739 191.9977 0007383 224.5234 135.5430 15.58795167 78338
SONATE-2
1 59112U 24043Q   25116.29675877  .00026177  00000-0  79310-3 0  9993
2 59112  97.5062 246.6546 0010405 269.1580  90.8470 15.34080456 63545
MO-122
1 60209U 24125G   25116.12426584  .00027370  00000-0  81875-3 0  9999
2 60209  97.2850 328.2800 0017814 298.4020  61.5428 15.34366975 45137
GRBBeta
1 60237U 24128C   25116.81009462  .00007909  00000-0  59754-3 0  9998
2 60237  61.9925 232.1183 0048035  47.7783 312.7369 15.02207898 43626
Curium One
1 60242U 24128H   25116.78151084  .00013601  00000-0  95833-3 0  9992
2 60242  61.9822 231.1154 0047775  43.2105 317.2719 15.04380853 43640
ROBUSTA-3A
1 60243U 24128J   25116.03994847  .00012391  00000-0  88650-3 0  9997
2 60243  61.9890 234.3931 0046354  40.9860 319.4700 15.03930491 43527
CatSat
1 60246U 24125J   25115.16795212  .00013382  00000-0  46057-3 0  9991
2 60246  97.2642 327.0449 0041838 255.1331 104.5274 15.29321504 43049
HYPERVIEW-1G (RS66S)
1 61772U 24199AP  25116.85755903  .00034474  00000-0  10593-2 0  9997
2 61772  97.3603 345.8503 0013602 357.5496   2.5678 15.33535563 70253
AO-123
1 61781U 24199AY  25116.83622945  .00012246  00000-0  45335-3 0  9990
2 61781  97.3614 345.1402 0015847 359.7485   0.3744 15.27690195 70202
ZIMSAT 2
1 61783U 24199BA  25116.90807950  .00058027  00000-0  15736-2 0  9999
2 61783  97.3588 346.2255 0013622 355.9731   4.1402 15.37335558 73434
HADES-R (SO-124)
1 62690U 25009CK  25115.93490961  .00052697  00000-0  20578-2 0  9997
2 62690  97.4111 197.0208 0003567 213.6212 146.4800 15.25702416 15331
HYDRA-T
1 62692U 25009CM  25115.92675685  .00053464  00000-0  20757-2 0  9998
2 62692  97.4107 197.0309 0003662 210.7136 149.3889 15.25891347 15330
JINJUSat 1B
1 63210U 25052A   25116.42628118  .00018338  00000-0  86515-3 0  9994
2 63210  97.4477  11.1321 0006533 108.0874 252.1073 15.19497363  6549
NUSHSAT 1
1 63211U 25052B   25116.22854427  .00019855  00000-0  93380-3 0  9990
2 63211  97.4470  10.9329 0006436 112.4119 247.7798 15.19589950  6516
TEVEL2-4
1 63213U 25052D   25116.16833771  .00020870  00000-0  98829-3 0  9996
2 63213  97.4385  10.8171 0005285 122.3716 237.8031 15.19347033  6504
TEVEL2-5
1 63214U 25052E   25116.23435592  .00019331  00000-0  91609-3 0  9993
2 63214  97.4386  10.8820 0005267 122.1878 237.9868 15.19337827  6514
TEVEL2-6
1 63215U 25052F   25116.49877740  .00019373  00000-0  91887-3 0  9991
2 63215  97.4385  11.1409 0005340 122.1526 238.0227 15.19307552  6550
TEVEL2-1
1 63217U 25052H   25116.43800220  .00019228  00000-0  91722-3 0  9993
2 63217  97.4360  11.0562 0005212 131.9304 228.2376 15.19111084  6542
TEVEL2-2
1 63218U 25052J   25116.50409795  .00019799  00000-0  94437-3 0  9993
2 63218  97.4362  11.1210 0005147 132.7443 227.4226 15.19108865  6555
TEVEL2-3
1 63219U 25052K   25116.50410868  .00020755  00000-0  98975-3 0  9992
2 63219  97.4362  11.1207 0005126 132.5924 227.5744 15.19106887  6559
TEVEL2-8
1 63237U 25052AD  25116.20565934  .00019501  00000-0  96143-3 0  9996
2 63237  97.4420  10.7893 0009029 156.3775 203.7875 15.17936262  6506
TEVEL2-9
1 63238U 25052AE  25116.20649824  .00019419  00000-0  95854-3 0  9994
2 63238  97.4423  10.7890 0009109 156.4726 203.6926 15.17893426  6503
TEVEL2-7
1 63239U 25052AF  25115.94372748  .00018825  00000-0  93066-3 0  9996
2 63239  97.4421  10.5278 0009124 156.9470 203.2174 15.17846879  6464
HYDRA-W
1 63490U 25052BL  25115.97076992  .00040036  00000-0  18178-2 0  9999
2 63490  97.4378  10.6194 0013408 157.4083 202.7745 15.20589221  6476
HADES-ICM
1 63492U 25052BN  25115.97506916  .00038530  00000-0  17652-2 0  9997
2 63492  97.4385  10.6153 0013506 161.4032 198.7699 15.20287901  6471
